Location: Karaa?a�
(36.7158°N, 30.4165°E)
Time: 00:29:21
(UTC+00:00)

Cosmos 1825 Rocket - Pass Details

Date: 09 April 2020
Orbit: 604 x 631 km, 82.5° (Epoch: 06 June)

Event Time Altitude Azimuth Distance (km) Brightness Sun altitude
Rises 17:28:30 0° 351° (N) 2,892 7.4 -12.5°
Reaches altitude 10° 17:30:44 10° 351° (N) 1,978 6.5 -13.0°
Maximum altitude 17:35:07 81° 265° (W) 622 3.6 -13.8°
Drops below altitude 10° 17:39:26 10° 178° (S) 1,949 5.9 -14.6°
Sets 17:41:37 0° 177° (S) 2,846 6.7 -15.0°
